TSIOLKOVSKY-RYAZAN 1 (*) (53312 NORAD) Tracking and Keplerian Element Data

This shows tracking and keplerian element data for the satellite.

Feedback or suggestion? Click here.




ElementValue
Catalog53312
NameTSIOLKOVSKY-RYAZAN 1 (*)
Epoch Orbit1048
Epoch Day270.07347553
Epoch Year2022
RAAN190.6075
Inclination51.6399
Eccentricity0.0001569
Argument of Perigee230.9829
Mean Anonmoly129.1023
Mean Motion15.55527163
Decay Rate0.00075323
L11 53312U 98067TX 22270.07347553 .00075323 00000+0 10777-2 0 9994
L22 53312 51.6399 190.6075 0001569 230.9829 129.1023 15.55527163 10482

Live tracking and technical data element details for TSIOLKOVSKY-RYAZAN 1 (*) (NORAD 53312). TSIOLKOVSKY-RYAZAN 1 (*) can be tracked NOW for your location showing map with azimuth and elevation plus other details from your city location.

Track the satellite on the map from your city or location and see movement details for azimuth, elevation, latitude, longitude, range, height, and movement on the map or in text.







IsCatalogInMostPopularTable: catalog: 53312, numindb: 10
Update: records affected: 1



GetName: 53312 TSIOLKOVSKY-RYAZAN 1 (*)

Hit Count: updated at: Fri, 30 Sep 2022 03:57:15 GMT